When you browse on this site, cookies collect data to enhance your experience and personalize the content and advertising you see.
Visit our Privacy Policy to learn more. By continuing to use the site, you agree to this use of cookies and data.
  • In Österreich
  • Länderverzeichnis
  • Für 7 Tage
  • Wassertemperatur
  • Satellitenkarten
  • Wetterkarte
  • News
  • Widgets
  • user-avatar
    Anmelden

    Stündliche Wetter Troy

    Heute, 19 Februar, Dienstag

    Zeit Temperatur Niederschläge Wind Luftdruck Luftfeuchtigkeit
    00:00 -9°C° 0 mm 1 m/S 754 mmHg 88%
    01:00 -9°C° 0 mm 1 m/S 755 mmHg 89%
    02:00 -9°C° 0 mm 1 m/S 755 mmHg 90%
    03:00 -9°C° 0 mm 1 m/S 755 mmHg 91%
    04:00 -9°C° 0 mm 1 m/S 755 mmHg 92%
    05:00 -10°C° 0 mm 1 m/S 756 mmHg 93%
    06:00 -11°C° 0 mm 1 m/S 756 mmHg 93%
    07:00 -10°C° 0 mm 1 m/S 757 mmHg 88%
    08:00 -9°C° 0 mm 1 m/S 757 mmHg 84%
    09:00 -8°C° 0 mm 1 m/S 757 mmHg 79%
    10:00 -7°C° 0 mm 1 m/S 757 mmHg 75%
    11:00 -6°C° 0 mm 1 m/S 757 mmHg 70%
    12:00 -3°C° 0 mm 1 m/S 757 mmHg 65%
    13:00 -3°C° 0 mm 1 m/S 756 mmHg 64%
    14:00 -4°C° 0 mm 0 m/S 756 mmHg 62%
    15:00 -3°C° 0 mm 0 m/S 755 mmHg 60%
    16:00 -3°C° 0 mm 1 m/S 755 mmHg 66%
    17:00 -4°C° 0 mm 1 m/S 755 mmHg 72%
    18:00 -6°C° 0 mm 1 m/S 754 mmHg 78%
    19:00 -6°C° 0 mm 1 m/S 754 mmHg 81%
    20:00 -6°C° 0 mm 1 m/S 754 mmHg 85%
    21:00 -6°C° 0 mm 1 m/S 754 mmHg 88%
    22:00 -6°C° 0 mm 1 m/S 753 mmHg 89%
    23:00 -6°C° 0 mm 1 m/S 753 mmHg 89%

    Morgen, 20 Februar, Mittwoch

    Zeit Temperatur Niederschläge Wind Luftdruck Luftfeuchtigkeit
    00:00 -7°C° 0 mm 2 m/S 753 mmHg 89%
    01:00 -7°C° 0 mm 2 m/S 752 mmHg 89%
    02:00 -8°C° 0 mm 3 m/S 751 mmHg 89%
    03:00 -8°C° 0 mm 3 m/S 750 mmHg 88%
    04:00 -8°C° 0 mm 3 m/S 749 mmHg 87%
    05:00 -8°C° 0 mm 3 m/S 749 mmHg 87%
    06:00 -7°C° 0 mm 3 m/S 748 mmHg 86%
    07:00 -8°C° 0 mm 4 m/S 747 mmHg 85%
    08:00 -7°C° 0 mm 5 m/S 746 mmHg 85%
    09:00 -6°C° 0 mm 5 m/S 745 mmHg 84%
    10:00 -6°C° 0.1 mm 6 m/S 744 mmHg 87%
    11:00 -5°C° 0.1 mm 6 m/S 743 mmHg 89%
    12:00 -4°C° 0.1 mm 6 m/S 741 mmHg 92%
    13:00 -4°C° 0.1 mm 6 m/S 740 mmHg 93%
    14:00 -2°C° 0.1 mm 5 m/S 739 mmHg 94%
    15:00 -1°C° 0.1 mm 5 m/S 737 mmHg 94%
    16:00 -1°C° 0.4 mm 5 m/S 736 mmHg 95%
    17:00 -1°C° 0.4 mm 5 m/S 735 mmHg 96%
    18:00 -1°C° 0.4 mm 4 m/S 734 mmHg 97%
    19:00 0°C° 0.3 mm 4 m/S 734 mmHg 98%
    20:00 0°C° 0.3 mm 4 m/S 734 mmHg 98%
    21:00 +1°C° 0.3 mm 4 m/S 733 mmHg 98%
    22:00 +1°C° 0 mm 5 m/S 734 mmHg 96%
    23:00 +1°C° 0 mm 6 m/S 734 mmHg 94%

    übermorgen, 21 Februar, Donnerstag

    Zeit Temperatur Niederschläge Wind Luftdruck Luftfeuchtigkeit
    00:00 -1°C° 0 mm 6 m/S 735 mmHg 91%
    01:00 -1°C° 0 mm 6 m/S 735 mmHg 89%
    02:00 -1°C° 0 mm 6 m/S 736 mmHg 87%
    03:00 -2°C° 0 mm 6 m/S 737 mmHg 85%
    04:00 -2°C° 0 mm 6 m/S 737 mmHg 85%
    05:00 -1°C° 0 mm 5 m/S 738 mmHg 84%
    06:00 -1°C° 0 mm 5 m/S 738 mmHg 84%
    07:00 -1°C° 0 mm 5 m/S 739 mmHg 82%
    08:00 -2°C° 0 mm 6 m/S 740 mmHg 80%
    09:00 -2°C° 0 mm 6 m/S 741 mmHg 78%
    10:00 -2°C° 0 mm 6 m/S 742 mmHg 76%
    11:00 -2°C° 0 mm 6 m/S 742 mmHg 74%
    12:00 -1°C° 0 mm 6 m/S 743 mmHg 72%
    13:00 0°C° 0 mm 5 m/S 743 mmHg 71%
    14:00 0°C° 0 mm 5 m/S 743 mmHg 70%
    15:00 0°C° 0 mm 5 m/S 744 mmHg 69%
    16:00 -1°C° 0 mm 4 m/S 744 mmHg 73%
    17:00 -1°C° 0 mm 3 m/S 745 mmHg 76%
    18:00 -2°C° 0 mm 3 m/S 746 mmHg 80%
    19:00 -2°C° 0 mm 3 m/S 746 mmHg 79%
    20:00 -2°C° 0 mm 3 m/S 747 mmHg 79%
    21:00 -4°C° 0 mm 3 m/S 747 mmHg 79%
    22:00 -4°C° 0 mm 3 m/S 748 mmHg 78%
    23:00 -4°C° 0 mm 3 m/S 748 mmHg 78%

    22 Februar, Freitag

    Zeit Temperatur Niederschläge Wind Luftdruck Luftfeuchtigkeit
    00:00 -4°C° 0 mm 3 m/S 748 mmHg 78%
    01:00 -4°C° 0 mm 3 m/S 749 mmHg 79%
    02:00 -4°C° 0 mm 2 m/S 749 mmHg 81%
    03:00 -4°C° 0 mm 2 m/S 749 mmHg 82%
    04:00 -4°C° 0 mm 2 m/S 750 mmHg 83%
    05:00 -4°C° 0 mm 2 m/S 750 mmHg 83%
    06:00 -4°C° 0 mm 2 m/S 751 mmHg 83%
    07:00 -4°C° 0 mm 2 m/S 751 mmHg 79%
    08:00 -1°C° 0 mm 1 m/S 752 mmHg 74%
    09:00 0°C° 0 mm 1 m/S 752 mmHg 70%
    10:00 +1°C° 0 mm 1 m/S 752 mmHg 65%
    11:00 +2°C° 0 mm 1 m/S 752 mmHg 60%
    12:00 +2°C° 0 mm 0 m/S 752 mmHg 55%
    13:00 +3°C° 0 mm 1 m/S 752 mmHg 54%
    14:00 +3°C° 0 mm 1 m/S 751 mmHg 53%
    15:00 +3°C° 0 mm 1 m/S 751 mmHg 52%
    16:00 +2°C° 0 mm 1 m/S 751 mmHg 58%
    17:00 -1°C° 0 mm 2 m/S 751 mmHg 64%
    18:00 -1°C° 0 mm 2 m/S 751 mmHg 70%
    19:00 -2°C° 0 mm 2 m/S 750 mmHg 71%
    20:00 -2°C° 0 mm 2 m/S 750 mmHg 72%
    21:00 -2°C° 0 mm 2 m/S 750 mmHg 73%
    22:00 -2°C° 0 mm 2 m/S 749 mmHg 72%
    23:00 -2°C° 0 mm 2 m/S 749 mmHg 72%

    23 Februar, Samstag

    Zeit Temperatur Niederschläge Wind Luftdruck Luftfeuchtigkeit
    00:00 -2°C° 0 mm 2 m/S 748 mmHg 71%
    01:00 -2°C° 0 mm 2 m/S 748 mmHg 73%
    02:00 -2°C° 0 mm 2 m/S 747 mmHg 75%
    03:00 -2°C° 0 mm 3 m/S 747 mmHg 77%
    04:00 -2°C° 0 mm 3 m/S 746 mmHg 78%
    05:00 -2°C° 0 mm 3 m/S 746 mmHg 79%
    06:00 -2°C° 0 mm 3 m/S 745 mmHg 81%
    07:00 -2°C° 0 mm 3 m/S 745 mmHg 79%
    08:00 -1°C° 0 mm 3 m/S 745 mmHg 77%
    09:00 -1°C° 0 mm 4 m/S 744 mmHg 74%
    10:00 0°C° 0.2 mm 3 m/S 744 mmHg 77%
    11:00 +1°C° 0.2 mm 2 m/S 743 mmHg 79%
    12:00 +1°C° 0.2 mm 2 m/S 742 mmHg 82%
    13:00 +2°C° 0 mm 2 m/S 741 mmHg 83%
    14:00 +2°C° 0 mm 2 m/S 740 mmHg 83%
    15:00 +2°C° 0 mm 2 m/S 739 mmHg 84%
    16:00 +2°C° 0 mm 2 m/S 738 mmHg 88%
    17:00 +1°C° 0 mm 3 m/S 737 mmHg 92%
    18:00 +1°C° 0 mm 3 m/S 737 mmHg 96%
    19:00 0°C° 1.7 mm 4 m/S 735 mmHg 97%
    20:00 +1°C° 1.7 mm 4 m/S 734 mmHg 97%
    21:00 +3°C° 1.7 mm 4 m/S 732 mmHg 97%
    22:00 +2°C° 4.1 mm 5 m/S 730 mmHg 98%
    23:00 +2°C° 4.1 mm 5 m/S 729 mmHg 98%

    24 Februar, Sonntag

    Zeit Temperatur Niederschläge Wind Luftdruck Luftfeuchtigkeit
    00:00 +3°C° 4.1 mm 5 m/S 727 mmHg 98%
    01:00 +5°C° 0.5 mm 5 m/S 726 mmHg 98%
    02:00 +6°C° 0.5 mm 5 m/S 724 mmHg 97%
    03:00 +7°C° 0.5 mm 5 m/S 723 mmHg 97%
    04:00 +6°C° 0 mm 5 m/S 723 mmHg 92%
    05:00 +5°C° 0 mm 6 m/S 722 mmHg 87%
    06:00 +4°C° 0 mm 6 m/S 722 mmHg 82%
    07:00 +4°C° 0.1 mm 6 m/S 722 mmHg 83%
    08:00 +4°C° 0.1 mm 6 m/S 722 mmHg 83%
    09:00 +3°C° 0.1 mm 7 m/S 722 mmHg 84%
    10:00 +3°C° 0.3 mm 7 m/S 722 mmHg 83%
    11:00 +2°C° 0.3 mm 8 m/S 722 mmHg 82%
    12:00 +3°C° 0.3 mm 9 m/S 722 mmHg 82%
    13:00 +2°C° 0.1 mm 10 m/S 723 mmHg 78%
    14:00 +1°C° 0.1 mm 11 m/S 723 mmHg 74%
    15:00 -1°C° 0.1 mm 12 m/S 724 mmHg 70%
    16:00 -1°C° 0.1 mm 12 m/S 725 mmHg 71%
    17:00 -2°C° 0.1 mm 11 m/S 727 mmHg 73%
    18:00 -3°C° 0.1 mm 10 m/S 728 mmHg 74%
    19:00 -3°C° 0.1 mm 10 m/S 730 mmHg 75%
    20:00 -3°C° 0.1 mm 10 m/S 731 mmHg 75%
    21:00 -4°C° 0.1 mm 9 m/S 732 mmHg 75%
    22:00 -4°C° 0.1 mm 9 m/S 734 mmHg 74%
    23:00 -5°C° 0.1 mm 9 m/S 735 mmHg 73%
    Mehr zeigen